[[{"header":{"parameterUnit":"m.s-1","parameterCategory":1,"la1":30.2991,"la2":30.254,"lo1":-89.0895,"lo2":-89.0444,"dy":0.0017,"dx":0.0017,"nx":28,"ny":28,"refTime":"2024-07-13T09:00:00:Z","depth":0,"parameterNumber":2,"parameterNumberName":"U-component_of_WINDS"},"data":[0,0,0,0,0,0,0,0,0,0,0,0,0,0,0,0,0,0,0,0,0,0,0,0,0,0,0,0,0,0,0,0,0,0,0,0,0,0,0,0,0,0,0,0,0,0,0,0,0,0,0,0,0,0,0,0,0,0,0.9346,0.9347,0,0.947,0.9471,0.9473,0.9487,0.9486,0.9485,0.9483,0.9614,0.9618,0.9623,0,0,0,0,0,0,0,0,0,0,0,0,0,0.9124,0.9128,0.9346,0.9347,0.9349,0.947,0.9471,0.9473,0.9487,0.9486,0.9484,0.9483,0.9612,0.9618,0.9623,0,0,0,0,0,0,0,0,0,0,0,0,0,0.9231,0.9129,0.9345,0.937,0.9374,0.9469,0.9471,0.9474,0.9488,0.9486,0.9484,0.9482,0.9611,0.9617,0.9624,0.9704,0,0,0.9645,0.9648,0,0,0,0,0,0,0,0,0.9225,0.924,0.9365,0.9369,0.9373,0.9461,0.9441,0.9551,0.9488,0.9444,0.9483,0.9481,0.9565,0.9575,0.9603,0.9711,0.9716,0.9646,0.965,0.9653,0.9655,0,0,0,0,0,0,0,0.9218,0.9234,0.9395,0.9367,0.9372,0.9376,0.939,0.9462,0.9514,0.9448,0.9449,0.9464,0.9567,0.9596,0.9606,0.9718,0.9646,0.9652,0.9656,0.9659,0.9899,0.9901,0,0,0,0,0,0,0.9205,0.9228,0.9391,0.9399,0.9293,0.9382,0.9397,0.9435,0.9513,0.9523,0.9465,0.9464,0.9585,0.9598,0.9611,0.971,0.9653,0.966,0.9664,0.9897,0.9899,0.9902,0,0,0,0,0,0,0.92,0.922,0.9386,0.9314,0.9335,0.9388,0.943,0.9438,0.9468,0.9526,0.9535,0.9486,0.9584,0.9601,0.9681,0.9715,0.9663,0.9669,0.9894,0.9897,0.99,0.991,0,0,0,0,0,0,0.9194,0.9218,0.9248,0.9314,0.9339,0.9453,0.9432,0.9442,0.9479,0.9479,0.9548,0.9557,0.9584,0.9671,0.9688,0.9724,0.9675,0.9891,0.9895,0.9899,0.9907,0.9913,0.9918,0,0,0,0,0,0.9186,0.9246,0.9249,0.9269,0.9378,0.9455,0.9469,0.9498,0.9482,0.9513,0.9551,0.9555,0.9708,0.9679,0.9698,0.9737,0.9889,0.9894,0.9899,0.9904,0.9912,0.9918,0,0,0,0,0,0,0.9184,0.9255,0.926,0.9343,0.9393,0.9457,0.9498,0.9505,0.9561,0.9558,0.9593,0.9608,0.9687,0.972,0.9685,0.9819,0.9797,0.9806,0.9794,0.9802,0.9808,0.9798,0.968,0,0,0,0,0,0.9193,0.9248,0.9308,0.9376,0.9401,0.9445,0.948,0.9497,0.9551,0.9572,0.9615,0.9668,0.9728,0.9767,0.9825,0.9911,0.9927,0.9947,0.9953,0.9958,0.9965,1.0014,1.0024,0.9918,0.9918,0.9918,0,0,0.9212,0.9258,0.9292,0.9377,0.9417,0.9476,0.9463,0.9524,0.9568,0.9582,0.966,0.9693,0.9754,0.9838,0.9877,0.9868,0.9998,0.9964,0.9967,0.9973,1.002,1.003,1.0039,0.9921,0.9921,0.992,0,0,0.9277,0.9317,0.9378,0.9419,0.9481,0.951,0.9524,0.9588,0.961,0.9689,0.9701,0.9754,0.9856,0.9899,0.9934,1.0016,1.0023,1.0034,1.0065,1.0112,1.012,1.0128,1.0158,1.0168,1.0042,1.0042,1.0042,0,0.9294,0.9381,0.9409,0.9471,0.9508,0.9522,0.9585,0.9624,0.9701,0.9727,0.9716,0.9845,0.9887,0.9981,1.0001,1.0029,1.0047,1.0027,1.0117,1.0125,1.0132,1.0161,1.0172,1.0043,1.0043,1.0043,1.0043,0,0.9399,0.9459,0.9501,0.9575,0.9617,0.9679,0.9718,0.9757,0.9771,0.9802,0.9882,0.9933,1.0002,1.0026,1.004,1.0122,1.0115,1.0109,1.0089,1.0143,1.017,1.0182,1.0044,1.0044,1.0044,1.0043,0,0,0.9466,0.9554,0.957,0.9603,0.9672,0.972,0.9783,0.9849,0.9883,0.9936,0.999,1.0077,1.0073,1.0113,1.0132,1.0173,1.0236,1.0164,1.0166,1.0176,1.0329,1.0333,1.0345,1.024,1.0242,1.0244,1.0324,0,0.954,0.9651,0.9678,0.9774,0.983,0.9845,0.9899,0.9948,0.9978,1.0032,1.0066,1.0126,1.0116,1.014,1.0181,1.0219,1.0267,1.0214,1.0292,1.0294,1.0276,1.036,1.0364,1.0437,1.0335,1.0337,1.0339,0,0.964,0.9694,0.9795,0.9857,0.9882,0.9931,0.9994,1.0044,1.01,1.012,1.0164,1.018,1.0247,1.0222,1.0316,1.0279,1.0313,1.0336,1.034,1.0348,1.032,1.0371,1.0461,1.0472,1.0356,1.0354,1.0353,0,0.9679,0.9778,0.9851,0.988,0.9954,0.9988,1.002,1.0074,1.0113,1.0169,1.0194,1.0257,1.0292,1.0341,1.0374,1.0353,1.0465,1.0443,1.0484,1.0483,1.0507,1.0505,1.0604,1.0528,1.0528,1.0527,1.0527,0,0.9759,0.982,0.987,0.9915,0.9985,1.0016,1.0084,1.0117,1.0165,1.0218,1.0234,1.0283,1.0323,1.0378,1.0405,1.0478,1.0494,1.0512,1.0518,1.0511,1.0508,1.0534,1.0529,1.053,1.053,1.0529,1.0529,0,0.9814,0.985,0.9931,0.9994,1.0012,1.006,1.0115,1.016,1.019,1.0256,1.0274,1.0322,1.0388,1.0425,1.0508,1.0526,1.0608,1.0612,1.0589,1.0592,1.063,1.0626,1.0749,1.0767,1.0678,1.0679,1.068,0,0.9863,0.991,0.9978,1.0014,1.0047,1.0105,1.0144,1.0177,1.0217,1.0285,1.0322,1.0388,1.0442,1.0547,1.059,1.0654,1.0659,1.0698,1.0669,1.066,1.066,1.0657,1.0662,1.0703,1.0704,1.0704,1.0705,0,0.9945,0.996,1.0016,1.0077,1.0123,1.0174,1.0224,1.0253,1.0294,1.0339,1.0406,1.0448,1.0532,1.0598,1.0665,1.07,1.071,1.0714,1.0726,1.0719,1.0704,1.0713,1.0603,1.0711,1.071,1.071,1.0709,1.0709,0.9999,1.0042,1.0096,1.0158,1.0199,1.0245,1.0291,1.0327,1.0383,1.0453,1.0469,1.054,1.0595,1.0686,1.0722,1.0779,1.0772,1.079,1.0795,1.0799,1.0801,1.0695,1.0791,1.0791,1.0791,1.0791,1.0791,0,1.0082,1.0118,1.0174,1.0243,1.0292,1.0296,1.0352,1.0392,1.0454,1.0504,1.0557,1.0634,1.0698,1.0747,1.0812,1.0848,1.0854,1.0864,1.0862,1.087,1.0803,1.0785,1.0858,1.0858,1.0858,1.0858,1.0858,1.0858,1.0131,1.0204,1.0226,1.032,1.0356,1.0424,1.0456,1.0499,1.054,1.0624,1.0677,1.0708,1.0758,1.0827,1.0887,1.0899,1.0923,1.0932,1.0946,1.0882,1.0875,1.0868,1.0852,1.0937,1.0937,1.1008,1.1009,1.101]},{"header":{"parameterUnit":"m.s-1","parameterCategory":1,"la1":30.2991,"la2":30.254,"lo1":-89.0895,"lo2":-89.0444,"dy":0.0017,"dx":0.0017,"nx":28,"ny":28,"refTime":"2024-07-13T09:00:00:Z","depth":0,"parameterNumber":3,"parameterNumberName":"V-component_of_WINDS"},"data":[0,0,0,0,0,0,0,0,0,0,0,0,0,0,0,0,0,0,0,0,0,0,0,0,0,0,0,0,0,0,0,0,0,0,0,0,0,0,0,0,0,0,0,0,0,0,0,0,0,0,0,0,0,0,0,0,0,0,2.8797,2.8797,0,2.8758,2.8757,2.8757,2.8738,2.8738,2.8739,2.8739,2.8697,2.8696,2.8694,0,0,0,0,0,0,0,0,0,0,0,0,0,2.8851,2.885,2.8797,2.8796,2.8796,2.8758,2.8757,2.8757,2.8738,2.8738,2.8739,2.8739,2.8697,2.8696,2.8694,0,0,0,0,0,0,0,0,0,0,0,0,0,2.8821,2.885,2.8797,2.8782,2.8781,2.8758,2.8757,2.8757,2.8738,2.8738,2.8739,2.8739,2.8697,2.8696,2.8694,2.8683,0,0,2.8689,2.8688,0,0,0,0,0,0,0,0,2.8823,2.8819,2.8785,2.8783,2.8781,2.8753,2.8761,2.8732,2.8738,2.8754,2.8739,2.8739,2.8715,2.8712,2.8705,2.8681,2.8679,2.8689,2.8688,2.8687,2.8686,0,0,0,0,0,0,0,2.8825,2.8821,2.8781,2.8784,2.8782,2.8776,2.8772,2.8756,2.8735,2.8753,2.8752,2.8747,2.8714,2.8706,2.8704,2.8679,2.8689,2.8687,2.8686,2.8686,2.8639,2.8639,0,0,0,0,0,0,2.883,2.8823,2.8783,2.878,2.8803,2.8775,2.877,2.8762,2.8735,2.8731,2.8747,2.8747,2.8709,2.8706,2.8702,2.8684,2.8687,2.8685,2.8684,2.8639,2.8639,2.8639,0,0,0,0,0,0,2.8831,2.8827,2.8784,2.8801,2.8795,2.8774,2.8765,2.8761,2.8753,2.8731,2.8727,2.8743,2.8709,2.8704,2.8687,2.8683,2.8685,2.8683,2.8639,2.8639,2.8639,2.865,0,0,0,0,0,0,2.8833,2.8827,2.8824,2.8801,2.8794,2.8771,2.8765,2.8761,2.8751,2.8749,2.8726,2.8722,2.8709,2.869,2.8685,2.868,2.8682,2.864,2.8639,2.8639,2.865,2.8651,2.8651,0,0,0,0,0,2.8835,2.8829,2.8824,2.8819,2.879,2.8771,2.8767,2.8753,2.8751,2.8746,2.8731,2.8723,2.8684,2.8688,2.8683,2.8677,2.864,2.8639,2.8639,2.865,2.8651,2.8651,0,0,0,0,0,0,2.8853,2.8826,2.882,2.8807,2.8792,2.8768,2.8763,2.8754,2.8738,2.8737,2.8719,2.8714,2.8697,2.8686,2.8691,2.8663,2.8661,2.8659,2.8671,2.8671,2.8672,2.8674,2.868,0,0,0,0,0,2.8855,2.8843,2.882,2.8811,2.8803,2.8784,2.8775,2.8765,2.8748,2.8741,2.8725,2.8708,2.8691,2.8681,2.8664,2.8648,2.8641,2.8642,2.8642,2.8642,2.8641,2.8628,2.8627,2.8637,2.8637,2.8637,0,0,2.886,2.8844,2.8838,2.8814,2.8801,2.8787,2.8779,2.8765,2.8754,2.8739,2.8721,2.8708,2.8687,2.8669,2.8661,2.8659,2.8636,2.8642,2.8642,2.864,2.8627,2.8626,2.8625,2.8637,2.8637,2.8637,0,0,2.8861,2.8849,2.8839,2.8825,2.8804,2.8791,2.8789,2.8766,2.8756,2.8738,2.8725,2.8711,2.8684,2.8668,2.8657,2.8648,2.8639,2.8643,2.8644,2.8632,2.8631,2.863,2.8624,2.8623,2.8642,2.8642,2.8642,0,2.887,2.885,2.8834,2.882,2.8809,2.8794,2.8782,2.8769,2.8744,2.8736,2.8734,2.8697,2.8682,2.8659,2.8656,2.8649,2.8643,2.8646,2.8633,2.8632,2.863,2.8625,2.8623,2.8643,2.8643,2.8643,2.8643,0,2.8859,2.8845,2.8839,2.8815,2.8803,2.879,2.877,2.876,2.8749,2.8736,2.8715,2.8696,2.8674,2.8668,2.8659,2.8642,2.8641,2.8636,2.8634,2.863,2.8624,2.8622,2.8644,2.8643,2.8643,2.8643,0,0,2.8873,2.8838,2.8836,2.8823,2.8798,2.8786,2.8771,2.8749,2.8739,2.8722,2.8706,2.8682,2.8676,2.8663,2.8651,2.864,2.8631,2.8636,2.8635,2.8634,2.8608,2.861,2.8608,2.8625,2.8624,2.8624,2.8609,0,2.8869,2.8843,2.8827,2.8806,2.8791,2.8774,2.8761,2.8742,2.8728,2.8712,2.8695,2.8677,2.8673,2.8664,2.8653,2.8635,2.8625,2.8636,2.8608,2.8607,2.8613,2.8606,2.861,2.8596,2.8606,2.8606,2.8606,0,2.8862,2.8844,2.8822,2.8795,2.8788,2.8777,2.8753,2.8739,2.8716,2.8706,2.869,2.8677,2.8658,2.8657,2.8628,2.8635,2.8622,2.8611,2.861,2.8606,2.8606,2.86,2.8592,2.8589,2.8603,2.8603,2.8603,0,2.8871,2.8842,2.8824,2.8813,2.8783,2.8774,2.876,2.8738,2.8725,2.8704,2.8695,2.8672,2.8659,2.8641,2.8621,2.8623,2.8593,2.8591,2.8581,2.8582,2.8576,2.8576,2.8564,2.857,2.857,2.857,2.857,0,2.8869,2.8855,2.8827,2.8816,2.8798,2.8779,2.8762,2.8747,2.8726,2.871,2.8694,2.8679,2.8654,2.8635,2.8619,2.8596,2.8591,2.858,2.8576,2.8581,2.8582,2.8572,2.8571,2.857,2.857,2.857,2.857,0,2.8876,2.8857,2.8836,2.8808,2.88,2.8788,2.8763,2.875,2.8734,2.8713,2.8707,2.8681,2.8657,2.8635,2.8604,2.8592,2.8567,2.8563,2.8575,2.8573,2.8564,2.8564,2.8544,2.8539,2.855,2.855,2.855,0,2.8875,2.8864,2.8834,2.8822,2.8809,2.879,2.8776,2.8755,2.8741,2.8712,2.8702,2.8676,2.8655,2.8617,2.8594,2.8568,2.8562,2.8557,2.8558,2.8562,2.8559,2.8559,2.8557,2.8557,2.8557,2.8557,2.8557,0,2.8875,2.8865,2.8846,2.8823,2.8807,2.8787,2.8767,2.8758,2.8732,2.8716,2.8692,2.8675,2.8641,2.8615,2.8586,2.857,2.8558,2.8556,2.8552,2.8557,2.8563,2.8557,2.8574,2.8557,2.8557,2.8557,2.8557,2.8557,2.8877,2.8865,2.8841,2.8819,2.8802,2.8782,2.8768,2.8749,2.8728,2.87,2.8688,2.8662,2.8635,2.8595,2.8579,2.8556,2.8554,2.8549,2.8547,2.8546,2.8545,2.8567,2.8551,2.8551,2.8551,2.8551,2.8551,0,2.8874,2.8857,2.8837,2.8809,2.8791,2.8782,2.8758,2.8743,2.872,2.8697,2.8676,2.8645,2.8619,2.8592,2.8564,2.8551,2.8544,2.8544,2.8544,2.8539,2.855,2.8556,2.8549,2.8549,2.8549,2.8549,2.8549,2.8549,2.887,2.8848,2.8835,2.8803,2.8786,2.8761,2.8747,2.8728,2.8709,2.8676,2.8654,2.8637,2.8611,2.858,2.8554,2.8547,2.8536,2.8537,2.8528,2.8539,2.8539,2.8539,2.8544,2.8535,2.8535,2.8518,2.8518,2.8518]}]]